ROMMA est une association bénévole à but non lucratif. Votre soutien est indispensable : ADHERER à ROMMA ou FAIRE un DON

Briord - (01, Ain)

Bugey (281 m)   Longitude: 05° 29' 13" E   Latitude: 45° 46' 37" N Station partenaire n°15
 

Détail journalier du     <<     >>

Température Precipitation Humidité Pression Vent Dir Rafale Dir. rafale Ensol.
Heure (°C) (mm) (%) (hPa) (km/h) (km/h) (min)
01:00 16.8088101800---0
02:00 16.2089101800---0
03:00 15.9090101800---0
04:00 15.4091101700---0
05:00 15.3092101700---0
06:00 15.3092101700---0
07:00 15.1093101600---0
08:00 16.3092101600---0
09:00 19.9085101600---40
10:00 21.907710143SE11SE60
11:00 23.407510143ONO15NO60
12:00 25.006610135ONO19O60
13:00 26.106610135NO19NO60
14:00 27.606310124ONO18NO60
15:00 26.706210126NO19NO30
16:00 20.1076101414NO50NNO5
17:00 18.20.484101514NO56NNO0
18:00 17.808810152ONO19NNO0
19:00 16.908910161---13O0
20:00 15.709010173ONO15ONO0
21:00 15.209110171O6ONO0
22:00 15.109110181O13O0
23:00 15.0091101802ONO0
minuit 15.0092101903OSO0

Graphique du 11-08-2019

 

Serveur OMMA